Change the Weather History Date:

Monday, April 8, 2013

  Actual Average Record
Temperature  
Mean Temperature 37 °F -  
Max Temperature 44 °F 52 °F 55 °F (2011)
Min Temperature 30 °F 30 °F 30 °F (2013)
Degree Days  
Heating Degree Days 28    
Moisture  
Dew Point 38 °F    
Average Humidity 100    
Maximum Humidity 100    
Minimum Humidity 100    
Precipitation  
Precipitation 0.00 in - - ()
Sea Level Pressure  
Sea Level Pressure 29.76 in    
Wind  
Wind Speed 11 mph (NE)    
Max Wind Speed 28 mph    
Max Gust Speed 40 mph    
Visibility 4 miles    
Events Fog , Thunderstorm    
Averages and records for this station are not official NWS values.
T = Trace of Precipitation, MM = Missing Value Source: NWS Daily Summary

Daily Weather History Graph

Daily Weather History Graph

Search for Another Location

Airport or City:

Trip Planner

Search our weather history database for the weather conditions in past years. The results will help you decide how hot, cold, wet, or windy it might be!

Date:

Astronomy

Apr. 08, 2013 Rise Set
Actual Time 6:56 AM CDT 8:04 PM CDT
Civil Twilight 6:27 AM CDT 8:33 PM CDT
Nautical Twilight 5:51 AM CDT 9:09 PM CDT
Astronomical Twilight 5:14 AM CDT 9:46 PM CDT
Moon 5:50 AM CDT (4/8) 6:38 PM CDT (4/8)
Length of Visible Light 14h 06m
Length of Day
13h 07m
Waning Crescent, 3% of the Moon is Illuminated
Apr 8
Waning Crescent
Apr 10
New
Apr 18
First Quarter
Apr 25
Full
May 2
Last Quarter

Hourly Weather History & Observations

Time (CDT) Temp. Windchill Dew Point Humidity Pressure Visibility Wind Dir Wind Speed Gust Speed Precip Events Conditions
12:15 AM 41.0 °F 39.0 °F 41.0 °F 100% 29.66 in 1.2 mi ESE 3.5 mph - N/A   Overcast
12:35 AM 39.2 °F 37.0 °F 39.2 °F 100% 29.66 in 0.2 mi East 3.5 mph - N/A Fog Fog
12:55 AM 39.2 °F 35.0 °F 39.2 °F 100% 29.66 in 0.2 mi East 5.8 mph - N/A Fog Fog
1:15 AM 37.4 °F 33.8 °F 37.4 °F 100% 29.65 in 0.2 mi NE 4.6 mph - N/A Fog Fog
1:35 AM 35.6 °F 30.7 °F 35.6 °F 100% 29.65 in 0.2 mi NE 5.8 mph - N/A Fog Fog
1:55 AM 35.6 °F 30.7 °F 35.6 °F 100% 29.65 in 0.2 mi ENE 5.8 mph - N/A Fog Fog
2:15 AM 35.6 °F 32.8 °F 35.6 °F 100% 29.64 in 0.2 mi East 3.5 mph - N/A   Overcast
2:35 AM 35.6 °F 30.7 °F 35.6 °F 100% 29.64 in 0.2 mi ENE 5.8 mph - N/A Fog Fog
2:55 AM 35.6 °F 32.8 °F 35.6 °F 100% 29.65 in 0.2 mi NE 3.5 mph - N/A Fog Fog
3:15 AM 35.6 °F 29.9 °F 35.6 °F 100% 29.64 in 0.2 mi ENE 6.9 mph - N/A   Overcast
3:35 AM 35.6 °F 30.7 °F 35.6 °F 100% 29.64 in 0.2 mi ENE 5.8 mph - N/A Fog Fog
3:55 AM 35.6 °F 31.7 °F 35.6 °F 100% 29.64 in 0.2 mi ENE 4.6 mph - N/A Fog Fog
4:15 AM 35.6 °F 31.7 °F 35.6 °F 100% 29.64 in 0.2 mi ENE 4.6 mph - N/A Fog Fog
4:35 AM 35.6 °F 31.7 °F 35.6 °F 100% 29.64 in 0.2 mi ENE 4.6 mph - N/A   Overcast
4:55 AM 35.6 °F 29.9 °F 35.6 °F 100% 29.64 in 0.2 mi NE 6.9 mph - N/A   Overcast
5:15 AM 35.6 °F 30.7 °F 35.6 °F 100% 29.64 in 0.2 mi ENE 5.8 mph - N/A   Overcast
5:35 AM 35.6 °F 30.7 °F 35.6 °F 100% 29.65 in 0.2 mi NE 5.8 mph - N/A Fog , Thunderstorm Fog
5:55 AM 35.6 °F 30.7 °F 35.6 °F 100% 29.65 in 0.2 mi NE 5.8 mph - N/A Fog Fog
6:15 AM 35.6 °F 28.6 °F 35.6 °F 100% 29.66 in 0.2 mi NE 9.2 mph - N/A Fog Fog
6:35 AM 35.6 °F 28.6 °F 35.6 °F 100% 29.66 in 0.2 mi NE 9.2 mph - N/A Fog Fog
6:55 AM 37.4 °F 30.3 °F 37.4 °F 100% 29.66 in 0.2 mi NE 10.4 mph - N/A Fog Fog
7:15 AM 37.4 °F 28.5 °F 37.4 °F 100% 29.67 in 0.2 mi NE 15.0 mph - N/A Fog Fog
7:35 AM 37.4 °F 29.3 °F 37.4 °F 100% 29.67 in 0.2 mi NNE 12.7 mph - N/A Fog Fog
7:55 AM 39.2 °F 30.2 °F 39.2 °F 100% 29.66 in 0.2 mi NE 17.3 mph - N/A Fog Fog
8:15 AM 39.2 °F 30.5 °F 39.2 °F 100% 29.66 in 0.2 mi ENE 16.1 mph - N/A Fog Fog
8:35 AM 39.2 °F 30.5 °F 39.2 °F 100% 29.67 in 0.2 mi NE 16.1 mph - N/A Fog Fog
8:55 AM 41.0 °F 33.1 °F 41.0 °F 100% 29.68 in 1.2 mi NE 15.0 mph 21.9 mph N/A   Overcast
9:15 AM 41.0 °F 31.9 °F 41.0 °F 100% 29.68 in 1.2 mi ENE 19.6 mph 23.0 mph N/A   Overcast
9:35 AM 41.0 °F 32.5 °F 41.0 °F 100% 29.69 in 3.0 mi ENE 17.3 mph 21.9 mph N/A   Overcast
9:55 AM 41.0 °F 32.2 °F 41.0 °F 100% 29.70 in 4.0 mi ENE 18.4 mph - N/A   Overcast
10:15 AM 42.8 °F 34.8 °F 42.8 °F 100% 29.71 in 5.0 mi ENE 17.3 mph 23.0 mph N/A   Overcast
10:35 AM 44.6 °F 36.6 °F 44.6 °F 100% 29.72 in 9.0 mi ENE 19.6 mph 25.3 mph N/A   Overcast
10:55 AM 44.6 °F 36.9 °F 44.6 °F 100% 29.72 in 10.0 mi ENE 18.4 mph - N/A   Overcast
11:15 AM 44.6 °F 37.4 °F 44.6 °F 100% 29.74 in 10.0 mi ENE 16.1 mph 24.2 mph N/A   Overcast
11:35 AM 44.6 °F 37.2 °F 44.6 °F 100% 29.73 in 10.0 mi ENE 17.3 mph 23.0 mph N/A   Overcast
11:55 AM 44.6 °F 36.6 °F 44.6 °F 100% 29.74 in 10.0 mi ENE 19.6 mph - N/A   Overcast
12:15 PM 44.6 °F 36.6 °F 44.6 °F 100% 29.74 in 10.0 mi ENE 19.6 mph - N/A   Overcast
12:35 PM 44.6 °F 37.2 °F 44.6 °F 100% 29.74 in 10.0 mi ENE 17.3 mph 24.2 mph N/A   Overcast
12:55 PM 44.6 °F 37.2 °F 44.6 °F 100% 29.75 in 10.0 mi ENE 17.3 mph - N/A   Overcast
1:15 PM 44.6 °F 37.2 °F 44.6 °F 100% 29.75 in 10.0 mi ENE 17.3 mph - N/A   Overcast
1:35 PM 44.6 °F 38.1 °F 44.6 °F 100% 29.76 in 10.0 mi NE 13.8 mph - N/A   Overcast
1:55 PM 42.8 °F 36.6 °F 42.8 °F 100% 29.78 in 10.0 mi NE 11.5 mph 19.6 mph N/A   Overcast
2:15 PM 41.0 °F 33.5 °F 41.0 °F 100% 29.78 in 10.0 mi NE 13.8 mph - N/A   Overcast
2:35 PM 42.8 °F 35.1 °F 42.8 °F 100% 29.78 in 10.0 mi ENE 16.1 mph - N/A   Overcast
2:55 PM 44.6 °F 36.9 °F 44.6 °F 100% 29.78 in 10.0 mi ENE 18.4 mph - N/A   Overcast
3:15 PM 44.6 °F 37.4 °F 44.6 °F 100% 29.79 in 10.0 mi NE 16.1 mph 20.7 mph N/A   Overcast
3:35 PM 41.0 °F 32.8 °F 41.0 °F 100% 29.80 in 10.0 mi NE 16.1 mph 21.9 mph N/A   Overcast
3:55 PM 41.0 °F 32.2 °F 41.0 °F 100% 29.81 in 10.0 mi NE 18.4 mph - N/A   Overcast
4:15 PM 41.0 °F 32.2 °F 41.0 °F 100% 29.82 in 10.0 mi NE 18.4 mph 21.9 mph N/A   Overcast
4:35 PM 39.2 °F 30.2 °F 39.2 °F 100% 29.83 in 10.0 mi ENE 17.3 mph - N/A   Overcast
4:55 PM 39.2 °F 29.8 °F 39.2 °F 100% 29.84 in 10.0 mi NE 18.4 mph - N/A   Overcast
5:15 PM 39.2 °F 30.2 °F 39.2 °F 100% 29.85 in 10.0 mi NE 17.3 mph - N/A   Overcast
5:35 PM 37.4 °F 27.2 °F 37.4 °F 100% 29.85 in 1.8 mi NE 19.6 mph 24.2 mph N/A   Overcast
5:55 PM 37.4 °F 26.9 °F 37.4 °F 100% 29.86 in 1.8 mi NE 20.7 mph 27.6 mph N/A   Overcast
6:15 PM 35.6 °F 24.2 °F 35.6 °F 100% 29.87 in 0.8 mi NE 21.9 mph 31.1 mph N/A   Overcast
6:35 PM 35.6 °F 23.7 °F 35.6 °F 100% 29.88 in 0.2 mi NNE 24.2 mph 33.4 mph N/A Fog Fog
6:55 PM 32.0 °F 18.6 °F 32.0 °F 100% 29.89 in 0.2 mi NNE 25.3 mph 33.4 mph N/A Fog Fog
7:15 PM 32.0 °F 19.2 °F 32.0 °F 100% 29.88 in 0.2 mi NE 23.0 mph 32.2 mph N/A Fog Fog
7:35 PM 32.0 °F 19.8 °F 32.0 °F 100% 29.89 in 0.2 mi NE 20.7 mph 32.2 mph N/A Fog Fog
7:55 PM 32.0 °F 18.9 °F 32.0 °F 100% 29.90 in 0.2 mi NE 24.2 mph 31.1 mph N/A Fog Fog
8:15 PM 32.0 °F 19.5 °F 32.0 °F 100% 29.90 in 0.5 mi NE 21.9 mph 29.9 mph N/A Fog Fog
8:35 PM 32.0 °F 20.5 °F 32.0 °F 100% 29.92 in 1.0 mi NE 18.4 mph 32.2 mph N/A   Overcast
8:55 PM 32.0 °F 19.2 °F 32.0 °F 100% 29.92 in 1.0 mi NE 23.0 mph 32.2 mph N/A   Overcast
9:15 PM 32.0 °F 19.8 °F 32.0 °F 100% 29.94 in 1.0 mi NE 20.7 mph 31.1 mph N/A   Overcast
9:35 PM 32.0 °F 20.1 °F 32.0 °F 100% 29.94 in 2.0 mi NE 19.6 mph 32.2 mph N/A   Overcast
9:55 PM 32.0 °F 19.2 °F 32.0 °F 100% 29.95 in 3.0 mi NE 23.0 mph 29.9 mph N/A   Overcast
10:15 PM 32.0 °F 19.5 °F 32.0 °F 100% 29.96 in 5.0 mi NE 21.9 mph 31.1 mph N/A   Overcast
10:35 PM 32.0 °F 18.6 °F 32.0 °F 100% 29.96 in 5.0 mi NE 25.3 mph 29.9 mph N/A   Overcast
10:55 PM 30.2 °F 17.1 °F 30.2 °F 100% 29.96 in 5.0 mi NE 21.9 mph 32.2 mph N/A   Overcast
11:15 PM 30.2 °F 16.8 °F 30.2 °F 100% 29.95 in 5.0 mi NE 23.0 mph 32.2 mph N/A   Overcast
11:35 PM 30.2 °F 15.7 °F 30.2 °F 100% 29.92 in 5.0 mi NE 27.6 mph 34.5 mph N/A   Overcast
11:55 PM 30.2 °F 16.2 °F 30.2 °F 100% 29.92 in 10.0 mi NE 25.3 mph 40.3 mph N/A   Overcast